Flag for Canada Weather past 2 weeks in Cumberland County, Nova Scotia, Canada

Now
58 °F

Cool.


Feels Like: 58 °F
Forecast: 53 / 77 °F
Wind: 2 mph from South

Location: Kentville

Current Time: Jul 30, 2015 at 2:12:11 AM

Latest Report: Jul 30, 2015 at 1:00 AM


Visibility: N/A

Pressure: 29.90 "Hg

Humidity: 90%

Dew point: 55 °F

Location of Cumberland CountyLocation

Historic Weather in Cumberland County — Graph

°F

Cumberland County temperature yesterday

Maximum temperature yesterday: 78 °F (at 2:00 PM)
Minimum temperature yesterday: 59 °F (at 4:00 AM)
Average temperature yesterday: 67 °F

Past Weeks' High & Low Weather Summary

 TemperatureHumidityPressure
High79 °F (Jul 15, 4:00 PM)100% (Jul 20, 4:00 AM)30.12 "Hg (Jul 20, 4:00 AM)
Low47 °F (Jul 17, 6:00 AM)31% (Jul 17, 1:00 PM)29.54 "Hg (Jul 22, 4:00 PM)
Average64 °F81%29.88 "Hg
* Reported Jul 15 1:00 AM — Jul 30 1:00 AM, Cumberland County, Weather by CustomWeather, © 2015

Note: Actual official high and low records may vary slightly from our data, if they occured in-between our weather recording intervals... More about our weather records

Advertising

Cumberland County weather history for previous 24 hours

 ConditionsComfort  
Time TempWeatherWind HumidityBarometerVisibility
1:00 AM
Thu, Jul 30
58 °FCool.2 mph90%29.90 "HgN/A
12:00 AM60 °FCool.2 mph90%29.90 "HgN/A
11:00 PM
Wed, Jul 29
63 °FMild.3 mph82%29.91 "HgN/A
10:00 PM62 °FCool.2 mph86%29.90 "HgN/A
9:00 PM68 °FMild.1 mph70%29.88 "HgN/A
8:00 PM72 °FMild.3 mph62%29.87 "HgN/A
7:00 PM74 °FMild.3 mph60%29.86 "HgN/A
6:00 PM77 °FMild.5 mph53%29.86 "HgN/A
5:00 PM76 °FMild.8 mph51%29.87 "HgN/A
4:00 PM77 °FWarm.6 mph50%29.86 "HgN/A
3:00 PM77 °FWarm.8 mph51%29.87 "HgN/A
2:00 PM78 °FWarm.5 mph55%29.87 "HgN/A
1:00 PM76 °FMild.6 mph54%29.88 "HgN/A
12:00 PM73 °FMild.5 mph71%29.89 "HgN/A
11:00 AM68 °FMild.6 mph84%29.89 "HgN/A
10:00 AM64 °FMild.5 mph94%29.90 "HgN/A
9:00 AM63 °FMild.3 mph95%29.91 "HgN/A
8:00 AM62 °FCool.2 mph96%29.90 "HgN/A
7:00 AM60 °FCool.2 mph96%29.91 "HgN/A
6:00 AM59 °FCool.2 mph95%29.89 "HgN/A
5:00 AM59 °FCool.No wind90%29.89 "HgN/A
4:00 AM59 °FCool.No wind96%29.90 "HgN/A
3:00 AM59 °FCool.No wind95%29.90 "HgN/A
2:00 AM60 °FCool.3 mph95%29.90 "HgN/A
Weather by CustomWeather, © 2015

See weather overviewHow to use our weather pages